VCBIVRMM

Guest
Details From VCBI - BANDARANAIKE INTL COLOMBO
To VRMM - MALE INTL
Flight Number -
Tags decoded
Created
Modified
Stats Distance 495 nm / 916 km
Max Altitude 0 ft / 0 m
Waypoints 5
Social Downloads 3
Likes 0
Share VATSIM

Download

Looking for another format? Having issues loading an existing format? Contact us
Advertisement - Login to hide

Notes

Requested: VCBI SUPSA GOKAN ATISA RAXON VRMM

Route

VCBI SUPSA ATISA RAXON VRMM

ID Type Via Altitude (ft/m) Position (lat/lon) Dist (leg/tot) Name
O VCBI APT - 0 / 0 7.18075 / 79.88412 - / 0 nm BANDARANAIKE INTL COLOMBO
SUPSA FIX - 0 / 0 6.78367 / 79.05223 55 / 55 nm
ATISA FIX - 0 / 0 3.35611 / 73.52722 389 / 444 nm
RAXON FIX - 0 / 0 3.94217 / 73.52967 35 / 479 nm
O VRMM APT - 0 / 0 4.19183 / 73.52913 14 / 494 nm MALE INTL

Altitude Profile

Advertisement - Login to hide

Weather


0- 5 10 15 20 25 30 35+ Temperature / °C

Clouds and Precipitation
Forecast for 2019-08-21 00:00 UTC. Updated 4 hours ago

Ground ~20,000 ft ~40,000 ft Winds

VCBI

Details ICAO VCBI (CMB)
Name Bandaranaike International
Region Sri Lanka
Timezone Asia/Colombo (UTC+5.5)
Stats Elevation 30 ft / 9 m (AMSL)
Location 7.181250° 79.883800°
Runways 1
Magnetic Variation 1.948° W

METAR

VCBI 210010Z 23008KT 9999 FEW016 27/25 Q1009 NOSIG

Decode

TAF

TAF VCBI 202300Z 2100/2206 25010KT 9999 SCT017 TX30/2108Z TN26/2200Z PROB30 TEMPO 2100/2104 7000 -SHRA SCT012 BKN014 FEW020CB

Decode

Departure Runways

ID Width Length Bearing (true/mag) Surface Threshold Overrun Markings Lighting
04 148 ft / 45 m 11,001 ft / 3,353 m 37.22° / 39.16° ASPHALT 0 ft / 0 m 407 ft / 124 m PREC-APP CENTERLINE EDGE THRESHOLD ALSF-I REIL-OMNI
22 148 ft / 45 m 11,001 ft / 3,353 m 217.22° / 219.17° ASPHALT 0 ft / 0 m 390 ft / 119 m PREC-APP CENTERLINE EDGE THRESHOLD ALSF-II TDZ REIL-OMNI

VRMM

Details ICAO VRMM (MLE)
Name Male Ibrahim Nasir International Airport
Region Maldives
Timezone Indian/Maldives (UTC+5.0)
Stats Elevation 3 ft / 1 m (AMSL)
Location 4.191750° 73.529200°
Runways 1
Magnetic Variation 2.706° W

METAR

VRMM 210000Z 24006KT 9999 FEW018 BKN280 28/25 Q1010 NOSIG

Decode

TAF

TAF VRMM 202300Z 2100/2206 27008KT 9999 FEW018TCU TEMPO 2101/2107 5000 -TSRA FEW018CB

Decode

Destination Runways

ID Width Length Bearing (true/mag) Surface Threshold Overrun Markings Lighting
18 148 ft / 45 m 10,509 ft / 3,203 m 179.09° / 181.79° ASPHALT 328 ft / 100 m 233 ft / 71 m PREC-APP CENTERLINE EDGE THRESHOLD MALSF
36 148 ft / 45 m 10,509 ft / 3,203 m 359.09° / 1.79° ASPHALT 951 ft / 290 m 249 ft / 76 m PREC-APP CENTERLINE EDGE THRESHOLD MALSF

Approach Navaids

Runway Type Ident Frequency Range Bearing (true/mag) Slope Elevation
36 LOC-ILS IML 108.70 MHz 18 nm / 33 km 359.58° / 2.29 ° - 5 ft / 2 m (AMSL)
36 GS IML 108.70 MHz 10 nm / 19 km 359.11° / 1.82 ° 3.00° 5 ft / 2 m (AMSL)
36 DME IML 108.70 MHz 18 nm / 33 km - - 22 ft / 7 m (AMSL)

Popular Alternatives